www.pogodaiklimat.ru

Погода и климат >> Архив погоды >> Канада >> Medicine Hat Arpt


ПОГОДА в Medicine Hat Arpt

  • Прогноз погоды в Medicine Hat Arpt
  • Монитор погоды в Medicine Hat Arpt
  • Климат города

АРХИВ ПОГОДЫ в Medicine Hat Arpt

Время (UTC), дата Ветер
(напр.,м/с)
 
Видим.   Явления Облачность Т
(С)
Тd
(С)
f
(%)
Тe
(С)
Тes
(С)
Комфортность P
(гПа)
Po
(гПа)
Тmin
(С)
Tmax
(С)
R
(мм)
R24
(мм)
S
(см)
06 15.10 н/о н/о -15.2 -16.5 90 1006.6 997.0 -17.8 -13.7 7
09 15.10 С 2 н/о н/о -14.6 -15.9 90 -19 -19 1006.5 996.9 0.2
12 15.10 СЗ 2 н/о {осадки} н/о -13.7 -14.8 91 -19 -19 1006.2 996.6 -15.5 -13.7 0.2 53
15 15.10 СЗ 4 н/о н/о -12.7 -13.8 91 -20 -20 1005.7 996.1
18 15.10 СЗ 3 н/о {осадки} н/о -14.4 -15.6 91 -20 -20 1005.0 995.4 -16.4 -12.7 0.2
21 15.10 СЗ 6 н/о н/о -13.3 -14.5 91 -22 -22 1004.9 995.3
00 16.10 С 5 н/о н/о -13.6 -14.7 91 -22 -22 1004.6 995.0 -15.2 -12.6
03 16.10 СЗ 7 н/о н/о -12.0 -13.0 92 -22 -22 1003.4 993.9
06 16.10 С 7 н/о н/о -11.8 -12.8 92 -21 -21 1002.9 993.4 -15.2 -11.5 5
09 16.10 С 6 н/о н/о -11.5 -12.5 92 -20 -20 1002.6 993.1 0.2
12 16.10 С 6 н/о {осадки} н/о -11.9 -12.9 92 -21 -21 1002.8 993.3 -13.7 -11.5 0.2 56
15 16.10 С 7 н/о н/о -12.8 -13.9 91 -22 -22 1002.6 993.1
18 16.10 С 2 н/о н/о -13.6 -14.8 91 -17 -17 1002.7 993.2 -14.7 -11.2
21 16.10 СЗ 3 н/о н/о -13.5 -14.7 91 -19 -19 1003.3 993.8
00 17.10 ЮЗ 1 н/о н/о -12.8 -13.9 91 -15 -15 1003.6 994.1 -15.8 -11.9
03 17.10 С 2 н/о н/о -14.2 -15.4 91 -19 -19 1003.9 994.4
06 17.10 СЗ 1 н/о {осадки} н/о -13.7 -14.9 91 -16 -16 1004.1 994.5 -15.8 -11.2 0.5 7
09 17.10 Ю 2 н/о н/о -13.4 -14.6 91 -17 -17 1003.9 994.4 0.2
12 17.10 Ю 2 н/о н/о -14.7 -16.0 90 -20 -20 1003.8 994.2 -14.8 -11.2 0.2 58
15 17.10 Ю 1 н/о н/о -14.5 -15.7 91 -17 -17 1003.0 993.4
18 17.10 Ю 1 н/о н/о -14.1 -15.3 91 -14 -14 1002.6 993.1 -15.8 -12.9
21 17.10 Ю 1 н/о н/о -14.4 -15.7 90 -15 -15 1002.4 992.9
00 18.10 Ю 1 н/о н/о -15.2 -16.5 90 -16 -16 1003.0 993.4 -15.9 -13.7
03 18.10 Ю 1 н/о н/о -14.5 -15.8 90 -15 -15 1003.2 993.6
06 18.10 штиль 0 н/о н/о -15.4 -16.8 89 -15 -15 1003.9 994.3 -15.9 -12.9
09 18.10 С 1 н/о н/о -17.4 -19.0 87 -18 -18 1004.3 994.7
12 18.10 СЗ 1 н/о н/о -15.5 -16.8 90 -16 -16 1004.8 995.2 -18.7 -12.9 56
15 18.10 СЗ 9 н/о н/о -10.8 -11.8 92 -21 -21 1004.4 994.9
18 18.10 СЗ 8 н/о н/о -10.7 -11.5 94 -21 -21 1005.5 995.9 -18.7 -10.6
21 18.10 СЗ 9 н/о н/о -11.4 -12.4 92 -22 -22 1006.8 997.2
00 19.10 СЗ 13 н/о {осадки} н/о -10.4 -11.3 93 -23 -23 1007.3 997.7 -18.7 -10.4 0.2
03 19.10 СЗ 12 н/о н/о -11.1 -12.1 92 -23 -23 1008.8 999.3
06 19.10 СЗ 11 н/о н/о -10.5 -11.3 94 -22 -22 1009.5 1000.0 -18.7 -10.1 3
09 19.10 СЗ 9 н/о н/о -11.5 -12.5 92 -22 -22 1010.8 1001.2
12 19.10 СЗ 10 н/о н/о -11.6 -12.6 92 -22 -22 1011.3 1001.7 -11.6 -10.1 50
15 19.10 СЗ 8 н/о н/о -12.2 -13.2 92 -22 -22 1011.5 1001.9
18 19.10 СЗ 5 н/о н/о -11.9 -12.9 92 -20 -20 1011.0 1001.4 -12.3 -10.5
21 19.10 З 9 н/о н/о -12.1 -13.2 91 -23 -23 1009.9 1000.3
00 20.10 З 9 н/о н/о -12.1 -13.1 92 -23 -23 1009.0 999.4 -12.4 -11.4
03 20.10 З 10 н/о н/о -12.1 -13.2 91 -23 -23 1007.6 998.0
06 20.10 З 9 н/о н/о -11.9 -12.9 92 -22 -22 1006.3 996.8 -12.4 -10.5 8
09 20.10 З 5 н/о н/о -12.4 -13.4 92 -21 -21 1006.0 996.5
12 20.10 В 1 н/о н/о -13.3 -14.5 91 -16 -16 1005.7 996.2 -13.3 -10.5 50
15 20.10 С 1 н/о н/о -13.8 -14.9 91 -16 -16 1005.1 995.6
18 20.10 ЮВ 2 н/о н/о -14.6 -15.8 91 -19 -19 1005.3 995.7 -14.6 -10.9
21 20.10 С 1 н/о н/о -14.4 -15.7 90 -17 -17 1006.3 996.7
00 21.10 С 3 н/о н/о -16.4 -17.9 88 -23 -23 1007.7 998.1 -16.4 -12.0
03 21.10 ЮЗ 1 н/о н/о -17.3 -18.8 88 -20 -20 1008.9 999.3
06 21.10 С 2 н/о {осадки} н/о -17.9 -19.4 88 -23 -23 1010.8 1001.1 -19.3 -10.9 0.2 7
09 21.10 штиль 0 н/о н/о -18.2 -19.9 86 -18 -18 1013.0 1003.3
12 21.10 З 1 н/о н/о -17.9 -19.5 87 -21 -21 1014.4 1004.7 -19.9 -10.9 50
15 21.10 З 1 н/о н/о -17.0 -18.5 88 -20 -20 1015.3 1005.6 0.2
18 21.10 ЮВ 2 н/о н/о -17.5 -19.1 87 -23 -23 1016.8 1007.0 -19.9 -13.8 0.2
21 21.10 Ю 4 н/о н/о -18.5 -20.1 87 -27 -27 1018.1 1008.3
00 22.10 Ю 1 н/о {осадки} н/о -16.1 -17.5 89 -17 -17 1019.3 1009.5 -19.9 -13.8 0.2
03 22.10 Ю 1 н/о н/о -18.7 -20.4 86 -22 -22 1020.0 1010.2

 

Местоположение метеостанции Medicine Hat Arpt (Канада): широта 50.02 долгота -110.70 высота над уровнем моря 716 м.

В архиве по умолчанию представлена погода в Medicine Hat Arpt за последнюю неделю. Архивные данные за месяц целиком и за предыдущие месяцы, начиная с января 2011 года, Вы можете получить, выбрав интересующий диапазон дат из раскрывающегося списка и нажав кнопку "Ввод!".


*Определитесь, кто Вы:
робот инопланетянин человек

Внимание! Время в таблицах - всемирное. Для получения местного времени необходимо прибавить поправку, которая в Medicine Hat Arpt равна -7 ч.

Смотрите также архив погоды в соседних городах и на ближайших метеорологических станциях:

Погода в Seven Persons Agdm (Канада) (18 км)
Погода в Irvine Agcm (Канада) (32 км)
Погода в Bow Island Agdm (Канада) (46 км)
Погода в Schuler Radar (Канада) (48 км)
Погода в Schuler Agdm (Канада) (59 км)
Погода в Bow Island (Канада) (60 км)
Погода в Manyberries Agcm (Канада) (73 км)
Погода в Grassy Lake (Канада) (73 км)
Погода в Rolling Hills (Канада) (77 км)
Погода в Foremost Agdm (Канада) (79 км)

Пояснения к столбцам:

Ветер - указаны скорость ветра в м/с - средняя за 10 мин, порывы в срок и между сроками (в фигурных скобках) и направление, откуда дует ветер: С - северный, СВ - северо-восточный, В - восточный, ЮВ - юго-восточный, Ю - южный, ЮЗ - юго-западный, З - западный, СЗ - северо-западный.
Видимость - горизонтальная дальность видимости в метрах или километрах. При видимости от 1 до 10 км при отсутствии осадков обычно наблюдается дымка, при ухудшении видимости до 1 км и менее - туман. В сухую погоду видимость может ухудшаться дымом, пылью или мглою.
Явления - указаны атмосферные явления, наблюдавшиеся в срок или в последний час перед сроком; фигурными скобками обозначены явления, наблюдавшиеся между сроками (за 1-3 часа до срока); квадратными скобками обозначены град или гололедные отложения с указанием их диаметра в мм.
Облачность - указаны через наклонную черту общая и нижняя облачность в баллах и высота нижней границы облаков в метрах; квадратными скобками обозначены формы облаков: Ci - перистые, Cs - перисто-слоистые, Cc - перисто-кучевые, Ac - высококучевые, As - высокослоистые, Sc - слоисто-кучевые, Ns - слоисто-дождевые, Cu - кучевые, Cb - кучево-дождевые. Подробнее классификацию облаков см. в Атласе облаков (PDF).
T - Температура воздуха - температура, измеренная на высоте 2 м над землей.
Td - Температура точки росы - температура, при понижении до которой содержащийся в воздухе водяной пар достигнет насыщения.
f - Относительная влажность воздуха - влажноcть воздуха, измеренная на высоте 2 м над землей.
Te - Эффективная температура - температура, которую ощущает одетый по сезону человек в тени. Характеристика душности погоды. При расчете учитывается влияние влажности воздуха и скорости ветра на теплоощущения человека.
Tes - Эффективная температура на солнце - температура, которую ощущает человек, с поправкой на солнечный нагрев. Характеристика знойности погоды. Зависит от высоты солнца над горизонтом, облачности и скорости ветра. Ночью, в пасмурную погоду, а также при ветре 12 м/с и более поправка равна нулю.
P - Атмосферное давление - приведенное к уровню моря атмосферное давление.
Po - Атмосферное давление - измеренное на уровне метеостанции атмосферное давление.
Tmin - Минимальная температура - минимум температуры воздуха на высоте 2 м над землей.
Tmax - Максимальная температура - максимум температуры воздуха на высоте 2 м над землей.
R - Количество осадков - Количество выпавших осадков за период времени, мм. При наведении курсора мыши на число - период времени, за который выпало указанное количество осадков.
R24 - Количество осадков - Количество выпавших осадков за 24 часа, мм.
S - Снежный покров - Высота снежного покрова, см. При наведении курсора мыши на число - состояние снежного покрова и степень покрытия местности в баллах.